| time (UTC) | temp C | wind direction | speed KPH | gust KPH | rain 1hr cm | rain 24hr cm | rain mn cm | humidity % | barometer mb |
| 20260506202008 | 14 | 267 | 1.6 | 6.4 | 0.00 | 0.43 | 0.43 | 98 | 1004.5 |
| 20260506201325 | 14 | 211 | 0.0 | 0.0 | 0.00 | 0.43 | 0.43 | 98 | 1004.7 |
| 20260506200125 | 14 | 205 | 0.0 | 1.6 | 0.00 | 0.43 | 0.43 | 98 | 1004.7 |
| 20260506195007 | 14 | 235 | 0.0 | 1.6 | 0.00 | 0.43 | 0.43 | 98 | 1004.9 |
| 20260506194323 | 14 | 220 | 0.0 | 0.0 | 0.00 | 0.38 | 0.38 | 98 | 1005.0 |
| 20260506193123 | 14 | 250 | 0.0 | 3.2 | 0.00 | 0.36 | 0.36 | 98 | 1005.0 |
| 20260506192011 | 14 | 212 | 1.6 | 3.2 | 0.00 | 0.36 | 0.36 | 97 | 1005.2 |
| 20260506190125 | 14 | 225 | 0.0 | 0.0 | 0.00 | 0.28 | 0.28 | 97 | 1005.3 |
| 20260506185011 | 14 | 170 | 0.0 | 0.0 | 0.00 | 0.25 | 0.25 | 97 | 1005.4 |
| 20260506184327 | 14 | 205 | 1.6 | 6.4 | 0.00 | 0.25 | 0.25 | 96 | 1005.5 |
| 20260506183127 | 14 | 226 | 0.0 | 0.0 | 0.00 | 0.25 | 0.25 | 96 | 1005.5 |
| 20260506181327 | 15 | 239 | 0.0 | 3.2 | 0.00 | 0.25 | 0.25 | 96 | 1005.5 |
| 20260506180127 | 15 | 141 | 0.0 | 1.6 | 0.00 | 0.23 | 0.23 | 96 | 1005.4 |
| 20260506175010 | 15 | 218 | 0.0 | 0.0 | 0.00 | 0.23 | 0.23 | 95 | 1005.6 |
| 20260506174327 | 15 | 231 | 0.0 | 0.0 | 0.00 | 0.20 | 0.20 | 96 | 1005.5 |
| 20260506173126 | 15 | 85 | 0.0 | 0.0 | 0.00 | 0.18 | 0.18 | 95 | 1005.7 |
| 20260506172010 | 15 | 197 | 0.0 | 0.0 | 0.00 | 0.18 | 0.18 | 94 | 1005.8 |
| 20260506171333 | 15 | 200 | 0.0 | 0.0 | 0.00 | 0.13 | 0.13 | 93 | 1006.1 |
| 20260506170125 | 16 | 200 | 0.0 | 0.0 | 0.00 | 0.08 | 0.08 | 91 | 1006.6 |
| 20260506165008 | 16 | 203 | 0.0 | 0.0 | 0.00 | 0.05 | 0.05 | 89 | 1006.9 |
| 20260506164325 | 17 | 227 | 0.0 | 0.0 | 0.00 | 0.00 | 0.00 | 86 | 1006.8 |
| 20260506163127 | 17 | 269 | 1.6 | 3.2 | 0.00 | 0.00 | 0.00 | 84 | 1006.8 |
| 20260506161332 | 18 | 231 | 0.0 | 1.6 | 0.00 | 0.00 | 0.00 | 80 | 1006.7 |
| 20260506160129 | 18 | 226 | 0.0 | 1.6 | 0.00 | 0.00 | 0.00 | 77 | 1006.8 |
| 20260506155012 | 18 | 219 | 0.0 | 1.6 | 0.00 | 0.00 | 0.00 | 77 | 1006.9 |
| 20260506154323 | 18 | 233 | 0.0 | 3.2 | 0.00 | 0.00 | 0.00 | 78 | 1007.1 |
| 20260506153122 | 18 | 131 | 1.6 | 4.8 | 0.00 | 0.00 | 0.00 | 78 | 1007.3 |
| 20260506152010 | 18 | 235 | 0.0 | 1.6 | 0.00 | 0.00 | 0.00 | 78 | 1007.2 |
| 20260506151321 | 18 | 218 | 0.0 | 1.6 | 0.00 | 0.00 | 0.00 | 79 | 1007.3 |
| 20260506150127 | 18 | 212 | 1.6 | 4.8 | 0.00 | 0.00 | 0.00 | 79 | 1007.3 |
| 20260506145009 | 18 | 226 | 0.0 | 0.0 | 0.00 | 0.00 | 0.00 | 80 | 1007.3 |
| 20260506143125 | 17 | 210 | 1.6 | 3.2 | 0.00 | 0.00 | 0.00 | 81 | 1007.5 |
| 20260506142008 | 17 | 65 | 1.6 | 4.8 | 0.00 | 0.00 | 0.00 | 81 | 1007.5 |
| 20260506141325 | 17 | 217 | 0.0 | 0.0 | 0.00 | 0.00 | 0.00 | 83 | 1007.5 |
| 20260506140125 | 17 | 195 | 1.6 | 4.8 | 0.00 | 0.00 | 0.00 | 84 | 1007.4 |
| 20260506135009 | 16 | 201 | 0.0 | 1.6 | 0.00 | 0.00 | 0.00 | 85 | 1007.5 |
| 20260506134008 | 16 | 214 | 0.0 | 0.0 | 0.00 | 0.00 | 0.00 | 85 | 1007.5 |
| 20260506132009 | 16 | 210 | 0.0 | 0.0 | 0.00 | 0.00 | 0.00 | 87 | 1007.2 |
| 20260506131332 | 15 | 235 | 0.0 | 3.2 | 0.00 | 0.00 | 0.00 | 88 | 1007.4 |
| 20260506130121 | 15 | 228 | 0.0 | 3.2 | 0.00 | 0.00 | 0.00 | 88 | 1007.6 |
| 20260506125008 | 15 | 228 | 0.0 | 1.6 | 0.00 | 0.00 | 0.00 | 89 | 1007.6 |
| 20260506124325 | 15 | 221 | 0.0 | 0.0 | 0.00 | 0.00 | 0.00 | 89 | 1007.6 |
| 20260506123126 | 15 | 232 | 0.0 | 1.6 | 0.00 | 0.00 | 0.00 | 89 | 1007.9 |
| 20260506122010 | 15 | 40 | 0.0 | 3.2 | 0.00 | 0.00 | 0.00 | 90 | 1008.0 |
| 20260506121327 | 15 | 170 | 1.6 | 4.8 | 0.00 | 0.00 | 0.00 | 90 | 1007.9 |
| 20260506120126 | 14 | 193 | 0.0 | 0.0 | 0.00 | 0.00 | 0.00 | 91 | 1007.8 |
| 20260506115011 | 14 | 266 | 1.6 | 3.2 | 0.00 | 0.00 | 0.00 | 91 | 1007.7 |
| 20260506114322 | 14 | 229 | 0.0 | 1.6 | 0.00 | 0.00 | 0.00 | 92 | 1007.9 |
| 20260506113126 | 14 | 221 | 0.0 | 1.6 | 0.00 | 0.00 | 0.00 | 92 | 1007.9 |
| 20260506112010 | 13 | 205 | 0.0 | 1.6 | 0.00 | 0.00 | 0.00 | 93 | 1008.1 |
| 20260506111327 | 13 | 287 | 0.0 | 0.0 | 0.00 | 0.00 | 0.00 | 93 | 1007.9 |
| 20260506110124 | 13 | 215 | 0.0 | 1.6 | 0.00 | 0.00 | 0.00 | 94 | 1007.9 |
| 20260506105010 | 13 | 226 | 1.6 | 3.2 | 0.00 | 0.00 | 0.00 | 95 | 1008.1 |
| 20260506104327 | 13 | 229 | 0.0 | 1.6 | 0.00 | 0.00 | 0.00 | 95 | 1007.9 |
| 20260506102011 | 12 | 226 | 0.0 | 1.6 | 0.00 | 0.00 | 0.00 | 95 | 1008.1 |
| 20260506101328 | 12 | 219 | 0.0 | 1.6 | 0.00 | 0.00 | 0.00 | 94 | 1007.9 |
| 20260506095007 | 12 | 216 | 0.0 | 1.6 | 0.00 | 0.00 | 0.00 | 93 | 1007.9 |
| 20260506094324 | 12 | 222 | 0.0 | 1.6 | 0.00 | 0.00 | 0.00 | 93 | 1007.6 |
| 20260506093126 | 12 | 222 | 0.0 | 1.6 | 0.00 | 0.00 | 0.00 | 93 | 1007.7 |
| 20260506092010 | 12 | 240 | 0.0 | 0.0 | 0.00 | 0.00 | 0.00 | 93 | 1007.7 |
| 20260506091321 | 13 | 245 | 0.0 | 1.6 | 0.00 | 0.00 | 0.00 | 92 | 1007.8 |
| 20260506090123 | 13 | 242 | 0.0 | 1.6 | 0.00 | 0.00 | 0.00 | 91 | 1007.9 |
| 20260506085007 | 13 | 232 | 0.0 | 1.6 | 0.00 | 0.00 | 0.00 | 91 | 1007.9 |
| 20260506084330 | 13 | 269 | 0.0 | 1.6 | 0.00 | 0.00 | 0.00 | 90 | 1007.8 |
| 20260506083128 | 13 | 221 | 0.0 | 1.6 | 0.00 | 0.00 | 0.00 | 90 | 1007.9 |
| 20260506082011 | 13 | 207 | 1.6 | 6.4 | 0.00 | 0.00 | 0.00 | 89 | 1007.9 |
| 20260506081327 | 13 | 232 | 0.0 | 1.6 | 0.00 | 0.00 | 0.00 | 89 | 1008.0 |
| 20260506080127 | 13 | 217 | 0.0 | 0.0 | 0.00 | 0.00 | 0.00 | 89 | 1007.8 |
| 20260506071324 | 13 | 231 | 0.0 | 1.6 | 0.00 | 0.00 | 0.00 | 86 | 1008.0 |
| 20260506070123 | 13 | 212 | 0.0 | 0.0 | 0.00 | 0.00 | 0.00 | 86 | 1008.1 |
| 20260506062008 | 15 | 235 | 0.0 | 1.6 | 0.00 | 0.00 | 0.00 | 82 | 1007.9 |
| 20260506061325 | 15 | 193 | 0.0 | 1.6 | 0.00 | 0.00 | 0.00 | 81 | 1008.0 |
| 20260506060127 | 15 | 218 | 0.0 | 1.6 | 0.00 | 0.00 | 0.00 | 80 | 1008.1 |
| 20260506051325 | 16 | 229 | 0.0 | 1.6 | 0.00 | 0.00 | 0.00 | 77 | 1008.3 |
| 20260506050124 | 16 | 224 | 1.6 | 3.2 | 0.00 | 0.00 | 0.00 | 77 | 1008.4 |
| 20260506045008 | 16 | 208 | 0.0 | 1.6 | 0.00 | 0.00 | 0.00 | 77 | 1008.4 |
| 20260506044324 | 16 | 232 | 1.6 | 6.4 | 0.00 | 0.00 | 0.00 | 76 | 1008.5 |
| 20260506043121 | 16 | 221 | 0.0 | 1.6 | 0.00 | 0.00 | 0.00 | 76 | 1008.5 |
| 20260506042005 | 16 | 226 | 0.0 | 1.6 | 0.00 | 0.00 | 0.00 | 75 | 1008.4 |
| 20260506041328 | 16 | 212 | 0.0 | 0.0 | 0.00 | 0.00 | 0.00 | 75 | 1008.5 |
| 20260506040128 | 16 | 223 | 0.0 | 0.0 | 0.00 | 0.00 | 0.00 | 74 | 1008.5 |
| 20260506035005 | 16 | 210 | 0.0 | 1.6 | 0.00 | 0.00 | 0.00 | 74 | 1008.5 |
| 20260506031325 | 16 | 232 | 0.0 | 1.6 | 0.00 | 0.00 | 0.00 | 72 | 1008.6 |
| 20260506030122 | 16 | 222 | 0.0 | 1.6 | 0.00 | 0.00 | 0.00 | 72 | 1008.5 |
| 20260506025010 | 17 | 248 | 0.0 | 1.6 | 0.00 | 0.00 | 0.00 | 72 | 1008.5 |
| 20260506024327 | 17 | 0 | 0.0 | 1.6 | 0.00 | 0.00 | 0.00 | 71 | 1008.4 |
| 20260506021327 | 17 | 200 | 0.0 | 0.0 | 0.00 | 0.00 | 0.00 | 70 | 1008.2 |
| 20260506020123 | 17 | 226 | 0.0 | 1.6 | 0.00 | 0.00 | 0.00 | 70 | 1008.1 |
| 20260506015010 | 17 | 186 | 0.0 | 0.0 | 0.00 | 0.00 | 0.00 | 70 | 1008.2 |
| 20260506013125 | 17 | 221 | 0.0 | 1.6 | 0.00 | 0.00 | 0.00 | 70 | 1008.0 |
| 20260506012013 | 17 | 232 | 0.0 | 1.6 | 0.00 | 0.00 | 0.00 | 70 | 1007.9 |
| 20260506011323 | 17 | 207 | 0.0 | 0.0 | 0.00 | 0.00 | 0.00 | 69 | 1007.9 |
| 20260506010123 | 17 | 150 | 0.0 | 1.6 | 0.00 | 0.00 | 0.00 | 68 | 1007.8 |
| 20260506004326 | 18 | 115 | 0.0 | 1.6 | 0.00 | 0.00 | 0.00 | 68 | 1007.6 |
| 20260506003123 | 18 | 215 | 0.0 | 1.6 | 0.00 | 0.00 | 0.00 | 66 | 1007.4 |
| 20260506002007 | 18 | 201 | 0.0 | 1.6 | 0.00 | 0.00 | 0.00 | 66 | 1007.2 |
| 20260506000120 | 18 | 215 | 1.6 | 3.2 | 0.00 | 0.00 | 0.00 | 64 | 1006.9 |
| 20260505232007 | 20 | 208 | 0.0 | 3.2 | 0.00 | 0.00 | 0.00 | 61 | 1006.4 |
| 20260505231324 | 20 | 159 | 1.6 | 3.2 | 0.00 | 0.00 | 0.00 | 60 | 1006.2 |
| 20260505230123 | 21 | 228 | 0.0 | 3.2 | 0.00 | 0.00 | 0.00 | 59 | 1006.2 |
| 20260505225009 | 21 | 222 | 1.6 | 3.2 | 0.00 | 0.00 | 0.00 | 57 | 1006.1 |
| 20260505224320 | 22 | 176 | 0.0 | 0.0 | 0.00 | 0.00 | 0.00 | 55 | 1006.0 |
| 20260505223125 | 22 | 212 | 0.0 | 1.6 | 0.00 | 0.00 | 0.00 | 54 | 1005.8 |
| 20260505222009 | 22 | 201 | 0.0 | 3.2 | 0.00 | 0.00 | 0.00 | 54 | 1005.8 |
| 20260505221325 | 22 | 208 | 0.0 | 1.6 | 0.00 | 0.00 | 0.00 | 53 | 1005.7 |
| 20260505220121 | 22 | 208 | 1.6 | 3.2 | 0.00 | 0.00 | 0.00 | 53 | 1005.5 |
| 20260505213124 | 23 | 136 | 1.6 | 4.8 | 0.00 | 0.00 | 0.00 | 51 | 1005.9 |
| 20260505212010 | 23 | 207 | 1.6 | 3.2 | 0.00 | 0.00 | 0.00 | 50 | 1005.7 |
| 20260505210119 | 23 | 186 | 1.6 | 4.8 | 0.00 | 0.00 | 0.00 | 50 | 1005.6 |
| 20260505205006 | 24 | 321 | 1.6 | 4.8 | 0.00 | 0.00 | 0.00 | 49 | 1005.7 |
| 20260505204323 | 25 | 228 | 0.0 | 1.6 | 0.00 | 0.00 | 0.00 | 48 | 1005.6 |
| 20260505203123 | 25 | 204 | 0.0 | 1.6 | 0.00 | 0.00 | 0.00 | 48 | 1005.5 |